Portada
METAR-TAF:

METAR-TAF

Aeroports :

El Papalon

San Miguel, El Salvador

latitud: 13-27N, longitud: 088-07W, altitud: 80 m

Observació

L'informe es va fer fa 11 hores i 54 minuts, a les 22:50 UTC
Vent 2 kt del Est/Sud-Est
Temperatura 35°C
Humitat 42%
Pressió 1008 hPa
Visibilitat 10 km o més
Escasses núvols a una alçada de 3700 ft

METAR: MSSM 182250Z 11002KT 9999 FEW037 35/20 Q1007 A2976

Hora: 04:44 (10:44 UTC)


TAF: manca

Observacions i pronòstics meteorològics de més de 4000 aeroports (METAR i TAF).

Les estacions disponibles són els punts grocs i vermells al mapa.

Posi el ratolí al punt desitjat per veure el nom de l'estació.

Feu clic per veure les observacions i els pronòstics meteorològics.

Per canviar el mapa: feu clic els botons verds amb una creu de color negre per apropar; al botó verd amb un guió per allunyar la imatge; o en les fletxes verdes per a mapes adjacents.


METAR-TAF: